[[{"header":{"parameterUnit":"m.s-1","parameterCategory":1,"la1":30.2991,"la2":30.254,"lo1":-89.0895,"lo2":-89.0444,"dy":0.0017,"dx":0.0017,"nx":28,"ny":28,"refTime":"2024-10-03T09:00:00:Z","depth":0,"parameterNumber":2,"parameterNumberName":"U-component_of_WINDS"},"data":[0,0,0,0,0,0,0,0,0,0,0,0,0,0,0,0,0,0,0,0,0,0,0,0,0,0,0,0,0,0,0,0,0,0,0,0,0,0,0,0,0,0,0,0,0,0,0,0,0,0,0,0,0,0,0,0,0,0,-0.6354,-0.6356,0,-0.6579,-0.6582,-0.6584,-0.6776,-0.6778,-0.678,-0.6782,-0.7006,-0.701,-0.7014,0,0,0,0,0,0,0,0,0,0,0,0,0,-0.6081,-0.6085,-0.6354,-0.6357,-0.6359,-0.6579,-0.6582,-0.6585,-0.6776,-0.6778,-0.6781,-0.6783,-0.7004,-0.7009,-0.7014,0,0,0,0,0,0,0,0,0,0,0,0,0,-0.6241,-0.6086,-0.6353,-0.6481,-0.6495,-0.6578,-0.6582,-0.6586,-0.6775,-0.6778,-0.6782,-0.6785,-0.7003,-0.7009,-0.7015,-0.6987,0,0,-0.7033,-0.7035,0,0,0,0,0,0,0,0,-0.6232,-0.6251,-0.646,-0.6473,-0.6488,-0.6653,-0.6568,-0.672,-0.6774,-0.6668,-0.6782,-0.6786,-0.6885,-0.6901,-0.6936,-0.6997,-0.7007,-0.7033,-0.7037,-0.7039,-0.7041,0,0,0,0,0,0,0,-0.6221,-0.6243,-0.6443,-0.6462,-0.648,-0.6525,-0.6551,-0.6597,-0.6756,-0.6678,-0.6692,-0.6717,-0.6894,-0.693,-0.6943,-0.701,-0.7033,-0.7038,-0.7042,-0.7044,-0.7057,-0.7054,0,0,0,0,0,0,-0.6191,-0.6232,-0.6436,-0.645,-0.6366,-0.6527,-0.6557,-0.6597,-0.6756,-0.6783,-0.6714,-0.6725,-0.6918,-0.6936,-0.6951,-0.6928,-0.7039,-0.7045,-0.7048,-0.706,-0.7057,-0.7053,0,0,0,0,0,0,-0.6184,-0.6207,-0.6427,-0.6345,-0.6376,-0.6528,-0.6572,-0.6599,-0.6636,-0.6783,-0.6812,-0.6722,-0.6921,-0.6943,-0.6977,-0.6938,-0.7048,-0.7053,-0.7064,-0.7059,-0.7055,-0.6881,0,0,0,0,0,0,-0.6176,-0.6204,-0.6197,-0.6343,-0.638,-0.645,-0.657,-0.6601,-0.6647,-0.6663,-0.6799,-0.6824,-0.6926,-0.6967,-0.6982,-0.6948,-0.7058,-0.7068,-0.7062,-0.7056,-0.6891,-0.6871,-0.6854,0,0,0,0,0,-0.6165,-0.6138,-0.6196,-0.6219,-0.6375,-0.6447,-0.6468,-0.6587,-0.6643,-0.6635,-0.673,-0.682,-0.694,-0.6968,-0.6988,-0.6955,-0.7071,-0.7064,-0.7057,-0.6899,-0.6875,-0.6854,0,0,0,0,0,0,-0.5982,-0.616,-0.6226,-0.6246,-0.633,-0.648,-0.6475,-0.6558,-0.6627,-0.6639,-0.6782,-0.6811,-0.6828,-0.6896,-0.6924,-0.6935,-0.7017,-0.7014,-0.6891,-0.6869,-0.6851,-0.6833,-0.7062,0,0,0,0,0,-0.5944,-0.599,-0.6143,-0.6145,-0.6184,-0.6321,-0.6357,-0.6442,-0.6534,-0.657,-0.6667,-0.6751,-0.6808,-0.6843,-0.6903,-0.6902,-0.6932,-0.6888,-0.687,-0.6854,-0.6848,-0.685,-0.6831,-0.7029,-0.7029,-0.703,0,0,-0.5865,-0.5968,-0.5989,-0.6111,-0.6186,-0.6228,-0.635,-0.639,-0.6422,-0.6576,-0.6614,-0.6687,-0.679,-0.6805,-0.6817,-0.6862,-0.68,-0.6844,-0.6831,-0.6834,-0.6841,-0.6822,-0.6805,-0.7024,-0.7025,-0.7026,0,0,-0.5744,-0.5828,-0.5838,-0.5911,-0.6024,-0.6115,-0.6117,-0.6254,-0.6309,-0.635,-0.6466,-0.6504,-0.6599,-0.6668,-0.6714,-0.6615,-0.67,-0.6631,-0.6534,-0.6534,-0.6518,-0.6505,-0.6467,-0.6452,-0.6625,-0.6625,-0.6625,0,-0.5632,-0.5702,-0.5832,-0.5865,-0.5913,-0.6056,-0.6066,-0.613,-0.6255,-0.6284,-0.6333,-0.6455,-0.6535,-0.6566,-0.6542,-0.6576,-0.6581,-0.6616,-0.651,-0.6498,-0.6488,-0.6454,-0.6439,-0.6616,-0.6617,-0.6618,-0.6619,0,-0.5557,-0.5604,-0.5598,-0.5717,-0.5765,-0.5786,-0.5916,-0.5949,-0.6028,-0.6112,-0.615,-0.6251,-0.6333,-0.6347,-0.6425,-0.6389,-0.6413,-0.6484,-0.6569,-0.6457,-0.6428,-0.6416,-0.6603,-0.6606,-0.6609,-0.6611,0,0,-0.5328,-0.5517,-0.5513,-0.5567,-0.5701,-0.5738,-0.5763,-0.5846,-0.587,-0.5951,-0.5974,-0.605,-0.6116,-0.6169,-0.6256,-0.6256,-0.6168,-0.6327,-0.6332,-0.6292,-0.6132,-0.6076,-0.6059,-0.6225,-0.6223,-0.6222,-0.6123,0,-0.5227,-0.5284,-0.54,-0.5418,-0.5461,-0.5596,-0.5617,-0.57,-0.5779,-0.5824,-0.5912,-0.5963,-0.6047,-0.608,-0.6086,-0.6177,-0.6137,-0.6186,-0.6246,-0.6246,-0.6214,-0.6045,-0.5987,-0.5888,-0.6112,-0.611,-0.6109,0,-0.5118,-0.5191,-0.5214,-0.5343,-0.5365,-0.5382,-0.5465,-0.5508,-0.5603,-0.5661,-0.5718,-0.5814,-0.5845,-0.5923,-0.5967,-0.5997,-0.6029,-0.6077,-0.6076,-0.6085,-0.6169,-0.6047,-0.586,-0.5844,-0.6092,-0.6094,-0.6095,0,-0.4946,-0.505,-0.5077,-0.5119,-0.5271,-0.5279,-0.5342,-0.5441,-0.5482,-0.5553,-0.5581,-0.5654,-0.5694,-0.5748,-0.5859,-0.5907,-0.5889,-0.5978,-0.5935,-0.5932,-0.5925,-0.5923,-0.5738,-0.5946,-0.5947,-0.5947,-0.5947,0,-0.4821,-0.4829,-0.5001,-0.5017,-0.5029,-0.516,-0.5168,-0.5243,-0.5329,-0.536,-0.5481,-0.5506,-0.5653,-0.5695,-0.5782,-0.5803,-0.5821,-0.5866,-0.5889,-0.5854,-0.5848,-0.5876,-0.5885,-0.5943,-0.5944,-0.5945,-0.5945,0,-0.4631,-0.4747,-0.4784,-0.4924,-0.4959,-0.4961,-0.5079,-0.5098,-0.5184,-0.5221,-0.5237,-0.5371,-0.5427,-0.5543,-0.5631,-0.5689,-0.5689,-0.5731,-0.5656,-0.567,-0.5621,-0.5623,-0.5446,-0.5428,-0.5647,-0.5645,-0.5643,0,-0.4543,-0.4552,-0.4692,-0.4722,-0.478,-0.4827,-0.4869,-0.4998,-0.5036,-0.5143,-0.5148,-0.5214,-0.5273,-0.5355,-0.5459,-0.5525,-0.5569,-0.5502,-0.5579,-0.5544,-0.5565,-0.5563,-0.5563,-0.5484,-0.5481,-0.5478,-0.5476,0,-0.4374,-0.443,-0.4487,-0.4563,-0.4609,-0.4675,-0.4747,-0.4764,-0.4909,-0.4946,-0.5004,-0.505,-0.5139,-0.5201,-0.5283,-0.5346,-0.5433,-0.5451,-0.5445,-0.5409,-0.5365,-0.5386,-0.5607,-0.5454,-0.5457,-0.5458,-0.5459,-0.546,-0.4232,-0.4245,-0.4344,-0.4403,-0.447,-0.4534,-0.4558,-0.4646,-0.4697,-0.478,-0.4852,-0.4903,-0.4996,-0.5115,-0.5172,-0.5212,-0.5256,-0.5247,-0.5244,-0.524,-0.5224,-0.5359,-0.5228,-0.5229,-0.523,-0.523,-0.5231,0,-0.4067,-0.4137,-0.419,-0.4286,-0.433,-0.4411,-0.4493,-0.4525,-0.4569,-0.4648,-0.4703,-0.4769,-0.4829,-0.4936,-0.5006,-0.5017,-0.5059,-0.5031,-0.503,-0.5043,-0.5182,-0.518,-0.4995,-0.4995,-0.4995,-0.4995,-0.4995,-0.4995,-0.3987,-0.4013,-0.408,-0.4138,-0.4209,-0.426,-0.43,-0.4358,-0.4422,-0.449,-0.4541,-0.4611,-0.47,-0.4776,-0.4834,-0.4865,-0.4883,-0.4841,-0.4883,-0.5011,-0.5033,-0.5054,-0.5053,-0.4845,-0.4845,-0.4741,-0.474,-0.4739]},{"header":{"parameterUnit":"m.s-1","parameterCategory":1,"la1":30.2991,"la2":30.254,"lo1":-89.0895,"lo2":-89.0444,"dy":0.0017,"dx":0.0017,"nx":28,"ny":28,"refTime":"2024-10-03T09:00:00:Z","depth":0,"parameterNumber":3,"parameterNumberName":"V-component_of_WINDS"},"data":[0,0,0,0,0,0,0,0,0,0,0,0,0,0,0,0,0,0,0,0,0,0,0,0,0,0,0,0,0,0,0,0,0,0,0,0,0,0,0,0,0,0,0,0,0,0,0,0,0,0,0,0,0,0,0,0,0,0,0.9432,0.9431,0,0.9393,0.9392,0.9392,0.9262,0.926,0.9257,0.9254,0.9215,0.9216,0.9218,0,0,0,0,0,0,0,0,0,0,0,0,0,0.9396,0.9398,0.9432,0.9431,0.9431,0.9393,0.9392,0.9392,0.9263,0.9259,0.9256,0.9253,0.9214,0.9216,0.9218,0,0,0,0,0,0,0,0,0,0,0,0,0,0.939,0.9398,0.9432,0.9362,0.9355,0.9393,0.9392,0.9392,0.9264,0.9259,0.9255,0.9251,0.9213,0.9216,0.9218,0.9321,0,0,0.9226,0.9227,0,0,0,0,0,0,0,0,0.9391,0.9392,0.9373,0.9367,0.9359,0.9328,0.9365,0.9368,0.9265,0.9298,0.9254,0.9249,0.9256,0.9255,0.9257,0.9319,0.9317,0.9226,0.9227,0.9229,0.9229,0,0,0,0,0,0,0,0.9391,0.9393,0.9416,0.9372,0.9364,0.9333,0.9327,0.9365,0.9302,0.9295,0.9286,0.9283,0.9251,0.9255,0.9255,0.9316,0.9226,0.9228,0.923,0.9231,0.9464,0.9468,0,0,0,0,0,0,0.9402,0.9394,0.9417,0.9415,0.9365,0.9337,0.9331,0.9342,0.9301,0.9291,0.9287,0.9277,0.9253,0.9252,0.9253,0.9372,0.9229,0.9231,0.9232,0.9459,0.9465,0.947,0,0,0,0,0,0,0.9401,0.9405,0.9419,0.9402,0.9401,0.9343,0.9357,0.9344,0.9347,0.9295,0.9283,0.9302,0.9249,0.925,0.9305,0.9368,0.9232,0.9234,0.9453,0.9461,0.9467,0.9609,0,0,0,0,0,0,0.9401,0.9406,0.9443,0.9404,0.9403,0.9471,0.936,0.9346,0.9352,0.9339,0.9306,0.9296,0.9246,0.9302,0.9308,0.9369,0.9236,0.9447,0.9457,0.9465,0.9599,0.962,0.9639,0,0,0,0,0,0.94,0.9484,0.9445,0.9449,0.9448,0.9475,0.9475,0.9415,0.9357,0.9395,0.9362,0.9297,0.9361,0.9309,0.9314,0.9378,0.9443,0.9454,0.9464,0.959,0.9616,0.9638,0,0,0,0,0,0,0.953,0.9477,0.9434,0.9507,0.9497,0.9453,0.9498,0.9445,0.945,0.9438,0.9364,0.9358,0.9425,0.9407,0.935,0.9476,0.9392,0.9404,0.9485,0.951,0.9529,0.9532,0.9238,0,0,0,0,0,0.9568,0.9594,0.9546,0.9616,0.9613,0.9558,0.9567,0.9523,0.9509,0.9503,0.9474,0.9464,0.9482,0.9495,0.9508,0.9596,0.9588,0.9642,0.9663,0.9679,0.969,0.9738,0.9762,0.9505,0.9504,0.9504,0,0,0.9645,0.9619,0.964,0.9641,0.9628,0.9658,0.9554,0.9589,0.9611,0.9509,0.956,0.9539,0.9522,0.9596,0.9626,0.9583,0.976,0.9693,0.9707,0.9708,0.9751,0.9776,0.9798,0.9512,0.951,0.9509,0,0,0.9801,0.9784,0.9841,0.9831,0.9812,0.9776,0.979,0.9756,0.9738,0.9789,0.9713,0.9739,0.977,0.9763,0.9763,0.9922,0.9863,0.9928,1.0032,1.008,1.01,1.0118,1.0175,1.0197,0.9939,0.994,0.994,0,0.9899,0.994,0.9877,0.9918,0.9922,0.9832,0.9891,0.9884,0.9871,0.9876,0.9828,0.9868,0.9851,0.9922,0.9961,0.9964,0.9979,0.993,1.0102,1.0119,1.0135,1.0189,1.0211,0.9948,0.9947,0.9946,0.9945,0,1.0062,1.0093,1.0141,1.0133,1.0142,1.0192,1.0137,1.0155,1.0111,1.008,1.0135,1.0111,1.012,1.0134,1.009,1.02,1.0174,1.0115,1.0028,1.0169,1.0218,1.0239,0.996,0.9957,0.9954,0.9952,0,0,1.0295,1.0255,1.0273,1.027,1.0246,1.0268,1.0316,1.0325,1.0342,1.0338,1.0376,1.0407,1.0354,1.0355,1.031,1.0352,1.0481,1.0288,1.0287,1.0326,1.0603,1.0647,1.0672,1.0443,1.0447,1.045,1.0605,0,1.0443,1.0521,1.0467,1.0554,1.0583,1.0501,1.0542,1.0533,1.0507,1.0528,1.0498,1.0522,1.0449,1.045,1.0487,1.0458,1.0536,1.0446,1.0479,1.0481,1.0485,1.0698,1.0744,1.0891,1.0623,1.0627,1.0629,0,1.0625,1.0631,1.0722,1.0695,1.0705,1.0743,1.0749,1.077,1.0759,1.0737,1.0741,1.0687,1.0733,1.0649,1.0712,1.0652,1.0663,1.0651,1.0655,1.0656,1.0563,1.0704,1.0936,1.0959,1.0659,1.0656,1.0654,0,1.0787,1.0818,1.0876,1.0876,1.0846,1.0876,1.0865,1.0849,1.086,1.0865,1.0872,1.0883,1.0889,1.0899,1.0851,1.0794,1.0921,1.0833,1.0905,1.0906,1.0934,1.0933,1.1171,1.0942,1.0941,1.0941,1.0941,0,1.0958,1.1016,1.0949,1.0985,1.105,1.0989,1.1055,1.1035,1.1024,1.1055,1.0985,1.1017,1.0951,1.0976,1.0939,1.0998,1.1001,1.0985,1.0975,1.0991,1.0994,1.0997,1.0985,1.0947,1.0946,1.0944,1.0943,0,1.1148,1.1105,1.1164,1.1133,1.1127,1.1176,1.1149,1.1182,1.1153,1.1195,1.1201,1.1155,1.1181,1.1135,1.1155,1.113,1.1213,1.1186,1.1217,1.1209,1.1284,1.1278,1.1533,1.1564,1.1315,1.1317,1.1319,0,1.1259,1.1303,1.1278,1.1295,1.1289,1.1316,1.1327,1.1271,1.1286,1.1279,1.1314,1.1335,1.1348,1.1395,1.1364,1.138,1.1353,1.1442,1.1355,1.1372,1.1355,1.1354,1.1359,1.1459,1.1462,1.1464,1.1466,0,1.1462,1.144,1.1458,1.1472,1.1488,1.1495,1.1497,1.1515,1.1456,1.1476,1.1503,1.1514,1.1537,1.1559,1.1569,1.1558,1.1504,1.1495,1.1512,1.153,1.1546,1.1539,1.1266,1.1488,1.1486,1.1485,1.1483,1.1483,1.1616,1.1652,1.1642,1.1666,1.1663,1.1668,1.1698,1.1674,1.1696,1.171,1.1676,1.1713,1.1704,1.1711,1.1707,1.1735,1.1696,1.1721,1.1728,1.1735,1.1748,1.1543,1.1736,1.1736,1.1735,1.1735,1.1734,0,1.1815,1.1806,1.1829,1.1836,1.1856,1.1805,1.1806,1.1826,1.1859,1.1856,1.1873,1.1906,1.1929,1.1901,1.1919,1.1947,1.1923,1.1954,1.1951,1.195,1.1781,1.1764,1.1973,1.1973,1.1973,1.1973,1.1973,1.1973,1.1921,1.1981,1.1959,1.2018,1.2007,1.2043,1.2049,1.2053,1.2051,1.2092,1.2111,1.2093,1.2081,1.2099,1.2118,1.2109,1.2119,1.216,1.2143,1.1985,1.1961,1.1939,1.1923,1.2162,1.2162,1.2309,1.2311,1.2312]}]]